ONEWEB-0716 (55177 NORAD) Tracking and Keplerian Element Data

This shows tracking and keplerian element data for the satellite.

Feedback or suggestion? Click here.




ElementValue
Catalog55177
NameONEWEB-0716
Epoch Orbit1120
Epoch Day84.92885448
Epoch Year2023
RAAN253.6531
Inclination86.6226
Eccentricity0.0011627
Argument of Perigee333.3668
Mean Anonmoly26.6947
Mean Motion14.65743622
Decay Rate1.703E-05
L11 55177U 23004AP 23084.92885448 .00001703 00000+0 30845-3 0 9992
L22 55177 86.6226 253.6531 0011627 333.3668 26.6947 14.65743622 11209



Live tracking and technical data element details for ONEWEB-0716 (NORAD 55177). ONEWEB-0716 can be tracked NOW for your location showing map with azimuth and elevation plus other details from your city location.







IsCatalogInMostPopularTable: catalog: 55177, numindb: 14
Update: records affected: 1



GetName: 55177 ONEWEB-0716

Hit Count: updated at: Mon, 27 Mar 2023 06:14:44 GMT